Regional Weather Roundup
Issued by NWS Cleveland, OH

Home | Current Version | Previous Version | Graphics & Text | Print | Product List | Glossary On
Versions: 1 2 3 4 5 6 7 8 9 10 11 12 13 14 15 16 17 18 19 20 21 22 23 24 25 26 27 28 29 30 31 32 33 34 35 36 37 38 39 40 41 42 43 44 45 46 47 48 49 50
000
ASUS41 KCLE 041002
RWRCLE
OHIO REGIONAL WEATHER ROUNDUP
NATIONAL WEATHER SERVICE CLEVELAND, OH
500 AM EST SUN DEC 04 2016

NOTE: "FAIR" INDICATES FEW OR NO CLOUDS BELOW 12,000 FEET WITH NO
SIGNIFICANT WEATHER AND/OR OBSTRUCTIONS TO VISIBILITY.

OHZ001>008-015>018-024>027-034-035-043-044-041100-
   NORTHWEST OHIO

CITY           SKY/WX    TMP DP  RH WIND       PRES   REMARKS
DEFIANCE       CLOUDY    34  28  79 CALM      30.25F
FINDLAY        CLOUDY    34  26  72 CALM      30.25S
TOLEDO EXPRESS CLOUDY    33  27  78 SW3       30.26S
TOLEDO EXEC    MOCLDY    34  29  82 S5        30.27F WCI  30
LIMA           CLOUDY    33  28  81 E7        30.23S WCI  27
$$

OHZ009>014-019>023-028>033-038-089-041100-
   NORTHEAST OHIO

CITY           SKY/WX    TMP DP  RH WIND       PRES   REMARKS
CLE-HOPKINS    CLOUDY    37  26  64 SW5       30.29R
CLE-LAKEFRONT  CLOUDY    38  25  59 S6        30.27R
CUY CO. ARPT   NOT AVBL
LORAIN-ELYRIA  CLOUDY    33  27  78 CALM      30.27S
ASHTABULA      CLOUDY    33  29  85 S3        30.25F
AKRON-CANTON   MOCLDY    34  25  69 SW3       30.24F
WOOSTER        CLOUDY    33  28  81 CALM      30.26S
MANSFIELD      CLOUDY    33  26  75 SE3       30.23F
YOUNGSTOWN     MOCLDY    33  26  75 SW6       30.23F WCI  28
$$

OHZ042-051>053-060>062-070>072-077>081-041100-
  SOUTHWEST OHIO

CITY           SKY/WX    TMP DP  RH WIND       PRES   REMARKS
CINC-COVINGTON CLOUDY    37  31  78 E6        30.21S
CINC-LUNKEN    CLOUDY    37  32  82 NE3       30.25S
HAMILTON       CLOUDY    36  30  79 E3        30.24F
DAYTON         CLOUDY    34  27  75 SE5       30.23F WCI  30
WRIGHT-PAT AFB CLOUDY    34  29  82 CALM      30.23F
DAYTON GENERAL CLOUDY    35  27  72 E5        30.22F
WILMINGTON     CLOUDY    33  28  81 E5        30.22F WCI  29
$$

OHZ036-037-039>041-045>050-054>059-063>069-073>076-082>088-041100-
  CENTRAL AND SOUTHEAST OHIO

CITY           SKY/WX    TMP DP  RH WIND       PRES   REMARKS
COLUMBUS       CLOUDY    34  30  85 E5        30.24F WCI  30
OSU AIRPORT    CLOUDY    33  29  85 E5        30.24F WCI  29
BOLTON FIELD   NOT AVBL
RICKENBACK AFB CLOUDY    32  30  92 E3        30.23F
NEWARK         CLOUDY    33  27  78 CALM      30.24F
MARION         CLOUDY    32  28  85 E5        30.24F WCI  27
LANCASTER      CLOUDY    32  31  96 CALM      30.25F
ZANESVILLE     CLOUDY    34  26  72 E3        30.25F
NEW PHILLY     NOT AVBL
$$




USA.gov is the U.S. government's official web portal to all federal, state and local government web resources and services.